Jaipur, India

11:20 AM IST on July 26, 2017 (GMT +0530)
Jaipur

Weather History for VIJP - July, 2013

Change the Weather History Date:

Tuesday, July 23, 2013

  Actual Average Record
Temperature  
Mean Temperature 86 °F -  
Max Temperature 93 °F - - ()
Min Temperature 79 °F - - ()
Cooling Degree Days 21    
Growing Degree Days 36 (Base 50)    
Moisture  
Dew Point 79 °F    
Average Humidity 84    
Maximum Humidity 100    
Minimum Humidity 58    
Precipitation  
Precipitation 0.00 in - - ()
Sea Level Pressure  
Sea Level Pressure 29.52 in    
Wind  
Wind Speed 4 mph ()    
Max Wind Speed 9 mph    
Max Gust Speed -    
Visibility 1.7 miles    
Events Rain    
T = Trace of Precipitation, MM = Missing Value Source: Averaged Metar Reports

Daily Weather History Graph

Daily Weather History Graph

Search for Another Location

Airport or City:

Trip Planner

Search our weather history database for the weather conditions in past years. The results will help you decide how hot, cold, wet, or windy it might be!

Date:

Astronomy

Jul. 23, 2013 Rise Set
Actual Time 5:46 AM IST 7:19 PM IST
Civil Twilight 5:21 AM IST 7:45 PM IST
Nautical Twilight 4:50 AM IST 8:15 PM IST
Astronomical Twilight 4:18 AM IST 8:47 PM IST
Moon 7:41 PM IST (7/23) 6:13 AM IST (7/23)
Length of Visible Light 14h 23m
Length of Day
13h 33m
Full, 100% of the Moon is Illuminated
Jul 23
Full
Jul 29
Last Quarter
Aug 7
New
Aug 14
First Quarter
Aug 21
Full

Hourly Weather History & Observations

Time (IST) Temp. Heat Index Dew Point Humidity Pressure Visibility Wind Dir Wind Speed Gust Speed Precip Events Conditions
12:00 AM 80.6 °F 88.1 °F 78.8 °F 94% 29.53 in 1.9 mi Calm Calm - N/A   Mostly Cloudy
1:00 AM 80.6 °F 88.1 °F 78.8 °F 94% 29.53 in 1.9 mi Calm Calm - N/A   Mostly Cloudy
2:00 AM 78.8 °F - 78.8 °F 100% 29.53 in 1.9 mi Calm Calm - N/A   Mostly Cloudy
2:30 AM 79 °F - 78 °F 96% 29.46 in 1 mi Calm Calm - -   Mist
4:00 AM 78.8 °F - 78.8 °F 100% 29.53 in 1.9 mi East 3.5 mph - N/A   Mostly Cloudy
5:00 AM 78.8 °F - 78.8 °F 100% 29.53 in 1.9 mi East 6.9 mph - N/A   Mostly Cloudy
6:00 AM 78.8 °F - 78.8 °F 100% 29.53 in 1.6 mi East 5.8 mph - N/A   Mostly Cloudy
7:00 AM - - - N/A% - 1.6 mi East 5.8 mph - N/A   Mostly Cloudy
8:00 AM 80.6 °F 88.1 °F 78.8 °F 94% 29.59 in 1.6 mi East 8.1 mph - N/A   Mostly Cloudy
8:30 AM 80 °F - 78 °F 91% 29.52 in 1 mi East 5.8 mph - - Rain Light Drizzle
9:00 AM 80.6 °F 88.1 °F 78.8 °F 94% 29.59 in 1.2 mi East 5.8 mph - N/A   Light Drizzle
9:30 AM 80.6 °F 88.1 °F 78.8 °F 94% 29.59 in 1.6 mi ENE 4.6 mph - N/A   Mostly Cloudy
10:00 AM 82.4 °F 92.4 °F 78.8 °F 89% 29.59 in 1.6 mi ENE 4.6 mph - N/A   Overcast
10:30 AM 84.2 °F 96.1 °F 78.8 °F 84% 29.59 in 1.6 mi NE 5.8 mph - N/A   Mostly Cloudy
11:00 AM 84.2 °F 96.1 °F 78.8 °F 84% 29.59 in 1.6 mi ENE 5.8 mph - N/A   Mostly Cloudy
11:30 AM 85 °F - 79 °F 77% 29.51 in 1 mi ENE 6.9 mph - -   Mist
12:00 PM 86.0 °F 101.9 °F 80.6 °F 84% 29.59 in 1.6 mi East 5.8 mph - N/A   Mostly Cloudy
12:30 PM 86.0 °F 99.3 °F 78.8 °F 79% 29.56 in 1.6 mi East 9.2 mph - N/A   Mostly Cloudy
2:00 PM 89.6 °F 104.7 °F 78.8 °F 70% 29.53 in 2.2 mi East 8.1 mph - N/A   Haze
2:30 PM 91 °F - 78 °F 58% 29.45 in 1 mi East 5.8 mph - -   Haze
3:00 PM 89.6 °F 104.7 °F 78.8 °F 70% 29.53 in 2.2 mi East 5.8 mph - N/A   Haze
4:00 PM 91.4 °F 111.0 °F 80.6 °F 71% 29.50 in 2.2 mi East 6.9 mph - N/A   Haze
5:00 PM 91.4 °F 111.0 °F 80.6 °F 71% 29.47 in 2.2 mi ENE 8.1 mph - N/A   Haze
5:30 PM 91 °F - 79 °F 61% 29.39 in 1 mi East 9.2 mph - -   Haze
6:00 PM 91.4 °F 111.0 °F 80.6 °F 71% 29.47 in 2.2 mi East 6.9 mph - N/A   Haze
7:00 PM 87.8 °F 104.9 °F 80.6 °F 79% 29.47 in 2.2 mi East 5.8 mph - N/A   Haze
8:00 PM 87.8 °F 104.9 °F 80.6 °F 79% 29.50 in 2.2 mi SE 4.6 mph - N/A   Haze
8:30 PM 86 °F - 80 °F 76% 29.43 in 1 mi East 4.6 mph - -   Haze
9:00 PM 84.2 °F 98.3 °F 80.6 °F 89% 29.50 in 2.2 mi East 6.9 mph - N/A   Haze
11:00 PM 84.2 °F 98.3 °F 80.6 °F 89% 29.56 in 1.9 mi SE 3.5 mph - N/A   Scattered Clouds
11:30 PM 83 °F - 80 °F 87% 29.47 in 1 mi ESE 4.6 mph - -   Mist